| time (UTC) | temp C | wind direction | speed KPH | gust KPH | rain 1hr cm | rain 24hr cm | rain mn cm | humidity % | barometer mb |
| 20260507225118 | 12 | 0.0 | 0.0 | 0.00 | 0.00 | 0.00 | 66 | 1011.9 | |
| 20260507223117 | 13 | 0.0 | 0.0 | 0.00 | 0.00 | 0.00 | 65 | 1011.9 | |
| 20260507221128 | 13 | 0.0 | 0.0 | 0.00 | 0.00 | 0.00 | 67 | 1011.8 | |
| 20260507215117 | 13 | 0.0 | 0.0 | 0.00 | 0.00 | 0.00 | 67 | 1011.7 | |
| 20260507213117 | 13 | 0.0 | 0.0 | 0.00 | 0.00 | 0.00 | 66 | 1011.5 | |
| 20260507211116 | 14 | 0.0 | 0.0 | 0.00 | 0.00 | 0.00 | 66 | 1011.5 | |
| 20260507205116 | 14 | 0.0 | 0.0 | 0.00 | 0.00 | 0.00 | 67 | 1011.6 | |
| 20260507203116 | 15 | 0.0 | 0.0 | 0.00 | 0.00 | 0.00 | 65 | 1011.6 | |
| 20260507201115 | 15 | 0.0 | 0.0 | 0.00 | 0.00 | 0.00 | 66 | 1011.5 | |
| 20260507195115 | 15 | 0.0 | 0.0 | 0.00 | 0.00 | 0.00 | 66 | 1011.3 | |
| 20260507193115 | 15 | 0.0 | 0.0 | 0.00 | 0.00 | 0.00 | 65 | 1011.1 | |
| 20260507191114 | 16 | 0.0 | 0.0 | 0.00 | 0.00 | 0.00 | 62 | 1011.1 | |
| 20260507185114 | 18 | 0.0 | 0.0 | 0.00 | 0.00 | 0.00 | 57 | 1011.0 | |
| 20260507183114 | 18 | 0.0 | 0.0 | 0.00 | 0.00 | 0.00 | 57 | 1011.1 | |
| 20260507181113 | 18 | 0.0 | 0.0 | 0.00 | 0.00 | 0.00 | 56 | 1010.9 | |
| 20260507175113 | 18 | 0.0 | 0.0 | 0.00 | 0.00 | 0.00 | 55 | 1011.1 | |
| 20260507173113 | 19 | 0.0 | 0.0 | 0.00 | 0.00 | 0.00 | 54 | 1011.0 | |
| 20260507171112 | 21 | 0.0 | 0.0 | 0.00 | 0.00 | 0.00 | 50 | 1011.1 | |
| 20260507165112 | 22 | 0.0 | 0.0 | 0.00 | 0.00 | 0.00 | 46 | 1010.8 | |
| 20260507163112 | 21 | 0.0 | 0.0 | 0.00 | 0.00 | 0.00 | 49 | 1010.9 | |
| 20260507161111 | 21 | 0.0 | 0.0 | 0.00 | 0.00 | 0.00 | 49 | 1010.9 | |
| 20260507155111 | 22 | 0.0 | 0.0 | 0.00 | 0.00 | 0.00 | 47 | 1010.9 | |
| 20260507153111 | 21 | 0.0 | 0.0 | 0.00 | 0.00 | 0.00 | 47 | 1011.1 | |
| 20260507151110 | 22 | 0.0 | 0.0 | 0.00 | 0.00 | 0.00 | 46 | 1010.8 | |
| 20260507145110 | 22 | 0.0 | 0.0 | 0.00 | 0.00 | 0.00 | 46 | 1010.9 | |
| 20260507143110 | 23 | 0.0 | 0.0 | 0.00 | 0.00 | 0.00 | 45 | 1011.0 | |
| 20260507141111 | 23 | 0.0 | 0.0 | 0.00 | 0.00 | 0.00 | 42 | 1011.1 | |
| 20260507135109 | 23 | 0.0 | 0.0 | 0.00 | 0.00 | 0.00 | 46 | 1011.1 | |
| 20260507133109 | 22 | 0.0 | 0.0 | 0.00 | 0.00 | 0.00 | 46 | 1011.2 | |
| 20260507131109 | 22 | 0.0 | 0.0 | 0.00 | 0.00 | 0.00 | 45 | 1010.9 | |
| 20260507125108 | 22 | 0.0 | 0.0 | 0.00 | 0.00 | 0.00 | 47 | 1011.1 | |
| 20260507123108 | 23 | 0.0 | 0.0 | 0.00 | 0.00 | 0.00 | 45 | 1011.2 | |
| 20260507121108 | 21 | 0.0 | 0.0 | 0.00 | 0.00 | 0.00 | 48 | 1010.9 | |
| 20260507115107 | 21 | 0.0 | 0.0 | 0.00 | 0.00 | 0.00 | 48 | 1011.1 | |
| 20260507113107 | 23 | 0.0 | 0.0 | 0.00 | 0.00 | 0.00 | 44 | 1011.4 | |
| 20260507111107 | 23 | 0.0 | 0.0 | 0.00 | 0.00 | 0.00 | 43 | 1011.4 | |
| 20260507105106 | 22 | 0.0 | 0.0 | 0.00 | 0.00 | 0.00 | 47 | 1011.1 | |
| 20260507103106 | 22 | 0.0 | 0.0 | 0.00 | 0.00 | 0.00 | 47 | 1011.2 | |
| 20260507101106 | 18 | 0.0 | 0.0 | 0.00 | 0.00 | 0.00 | 58 | 1011.3 | |
| 20260507095105 | 22 | 0.0 | 0.0 | 0.00 | 0.00 | 0.00 | 46 | 1011.3 | |
| 20260507093105 | 25 | 0.0 | 0.0 | 0.00 | 0.00 | 0.00 | 42 | 1011.2 | |
| 20260507091105 | 24 | 0.0 | 0.0 | 0.00 | 0.00 | 0.00 | 42 | 1011.1 | |
| 20260507085104 | 24 | 0.0 | 0.0 | 0.00 | 0.00 | 0.00 | 42 | 1011.0 | |
| 20260507083104 | 21 | 0.0 | 0.0 | 0.00 | 0.00 | 0.00 | 48 | 1010.6 | |
| 20260507081104 | 18 | 0.0 | 0.0 | 0.00 | 0.00 | 0.00 | 53 | 1010.5 | |
| 20260507075104 | 18 | 0.0 | 0.0 | 0.00 | 0.00 | 0.00 | 52 | 1010.4 | |
| 20260507073103 | 20 | 0.0 | 0.0 | 0.00 | 0.00 | 0.00 | 48 | 1010.2 | |
| 20260507071103 | 21 | 0.0 | 0.0 | 0.00 | 0.00 | 0.00 | 46 | 1010.3 | |
| 20260507065102 | 21 | 0.0 | 0.0 | 0.00 | 0.00 | 0.00 | 45 | 1010.0 | |
| 20260507063102 | 20 | 0.0 | 0.0 | 0.00 | 0.00 | 0.00 | 49 | 1010.0 | |
| 20260507061102 | 18 | 0.0 | 0.0 | 0.00 | 0.00 | 0.00 | 50 | 1009.9 | |
| 20260507055102 | 17 | 0.0 | 0.0 | 0.00 | 0.00 | 0.00 | 54 | 1009.7 | |
| 20260507053101 | 17 | 0.0 | 0.0 | 0.00 | 0.00 | 0.00 | 55 | 1009.8 | |
| 20260507051101 | 16 | 0.0 | 0.0 | 0.00 | 0.00 | 0.00 | 58 | 1009.6 | |
| 20260507045101 | 16 | 0.0 | 0.0 | 0.00 | 0.00 | 0.00 | 61 | 1009.3 | |
| 20260507043100 | 15 | 0.0 | 0.0 | 0.00 | 0.00 | 0.00 | 63 | 1009.2 | |
| 20260507041100 | 16 | 0.0 | 0.0 | 0.00 | 0.00 | 0.00 | 60 | 1009.0 | |
| 20260507035100 | 16 | 0.0 | 0.0 | 0.00 | 0.00 | 0.00 | 61 | 1009.0 | |
| 20260507033059 | 16 | 0.0 | 0.0 | 0.00 | 0.00 | 0.00 | 60 | 1009.1 | |
| 20260507031059 | 16 | 0.0 | 0.0 | 0.00 | 0.00 | 0.00 | 60 | 1009.0 | |
| 20260507025059 | 16 | 0.0 | 0.0 | 0.00 | 0.00 | 0.00 | 61 | 1008.9 | |
| 20260507023102 | 16 | 0.0 | 0.0 | 0.00 | 0.00 | 0.00 | 60 | 1009.0 | |
| 20260507021058 | 16 | 0.0 | 0.0 | 0.00 | 0.00 | 0.00 | 60 | 1008.9 | |
| 20260507015058 | 16 | 0.0 | 0.0 | 0.00 | 0.00 | 0.00 | 59 | 1009.0 | |
| 20260507013058 | 16 | 0.0 | 0.0 | 0.00 | 0.00 | 0.00 | 59 | 1008.9 | |
| 20260507011057 | 16 | 0.0 | 0.0 | 0.00 | 0.00 | 0.00 | 59 | 1009.0 | |
| 20260507005057 | 16 | 0.0 | 0.0 | 0.00 | 0.00 | 0.00 | 61 | 1009.1 | |
| 20260507003056 | 15 | 0.0 | 0.0 | 0.00 | 0.00 | 0.00 | 61 | 1008.9 | |
| 20260507001056 | 15 | 0.0 | 0.0 | 0.00 | 0.00 | 0.00 | 62 | 1009.0 | |
| 20260506235056 | 16 | 0.0 | 0.0 | 0.00 | 0.00 | 0.00 | 60 | 1009.0 | |
| 20260506233056 | 16 | 0.0 | 0.0 | 0.00 | 0.00 | 0.00 | 60 | 1009.1 | |
| 20260506231055 | 16 | 0.0 | 0.0 | 0.00 | 0.00 | 0.00 | 57 | 1009.1 |